FW5810 Weather Reports


time (UTC)temp
C
wind
direction
speed
KPH
gust
KPH
rain 1hr
cm
rain 24hr
cm
rain mn
cm
humidity
%
barometer
mb
20260509101326 10 194 1.6 4.8 0.00 1.32 1.32 96 1008.5
20260509100824 10 212 1.6 6.4 0.00 1.32 1.32 96 1008.6
20260509100321 10 235 3.2 4.8 0.00 1.32 1.32 96 1008.6
20260509095817 10 143 1.6 4.8 0.13 1.32 1.32 96 1008.6
20260509095315 10 165 3.2 4.8 0.13 1.32 1.32 96 1008.6
20260509094812 10 160 3.2 4.8 0.00 1.30 1.30 96 1008.7
20260509094308 10 176 1.6 4.8 0.00 1.30 1.30 96 1008.8
20260509093806 10 232 1.6 4.8 0.00 1.30 1.30 96 1008.8
20260509093303 10 188 1.6 4.8 0.00 1.30 1.30 96 1008.8
20260509092802 10 217 3.2 6.4 0.18 1.30 1.30 96 1008.9
20260509092259 10 186 3.2 1.6 0.18 1.30 1.30 96 1008.7
20260509091757 10 227 3.2 6.4 0.00 1.27 1.27 96 1009.0
20260509091253 10 146 1.6 6.4 0.00 1.27 1.27 96 1009.0
20260509090751 10 126 1.6 6.4 0.00 1.27 1.27 97 1009.0
20260509090248 10 231 3.2 6.4 0.13 1.27 1.27 97 1008.9
20260509085745 10 143 0.0 6.4 0.48 1.27 1.27 97 1009.0
20260509085243 10 233 3.2 4.8 0.66 1.24 1.24 97 1009.1
20260509084739 10 8 1.6 1.6 0.43 1.19 1.19 97 1009.3
20260509084236 10 296 0.0 4.8 0.13 1.14 1.14 97 1009.2
20260509083734 10 106 1.6 4.8 0.00 1.12 1.12 96 1009.2
20260509083230 10 239 1.6 1.6 0.18 1.12 1.12 96 1009.3
20260509082727 10 217 0.0 0.0 0.18 1.12 1.12 96 1009.2
20260509082224 10 217 1.6 1.6 0.30 1.09 1.09 96 1009.1
20260509081720 10 230 0.0 1.6 0.30 1.07 1.07 96 1009.3
20260509081218 10 230 0.0 1.6 0.30 1.04 1.04 96 1009.4
20260509080716 10 253 3.2 4.8 0.48 1.02 1.02 96 1009.5
20260509080213 10 154 1.6 4.8 0.61 0.99 0.99 96 1009.3
20260509075711 10 196 1.6 6.4 0.48 0.94 0.94 96 1009.3
20260509075209 10 175 3.2 6.4 0.13 0.86 0.86 96 1009.2
20260509074705 10 138 4.8 8.0 0.30 0.84 0.84 96 1009.3
20260509074203 10 216 6.4 8.0 0.48 0.84 0.84 96 1009.3
20260509073659 10 188 4.8 6.4 0.48 0.79 0.79 96 1009.3
20260509073155 10 202 4.8 11.3 0.30 0.76 0.76 96 1009.5
20260509072652 10 252 3.2 6.4 0.13 0.71 0.71 96 1009.5
20260509072149 10 217 3.2 8.0 0.13 0.71 0.71 96 1009.5
20260509071645 10 218 4.8 8.0 0.00 0.69 0.69 96 1009.4
20260509071143 10 201 3.2 12.9 0.18 0.69 0.69 96 1009.4
20260509070640 10 119 4.8 6.4 0.48 0.69 0.69 96 1009.6
20260509070136 10 225 4.8 6.4 0.48 0.66 0.66 96 1009.4
20260509065632 10 165 11.3 11.3 0.30 0.61 0.61 96 1009.4
20260509065128 10 155 6.4 8.0 0.30 0.58 0.58 96 1009.5
20260509064626 10 166 3.2 4.8 0.18 0.56 0.56 96 1009.7
20260509064124 10 147 3.2 6.4 0.30 0.56 0.56 96 1009.6
20260509063620 10 155 1.6 8.0 0.13 0.53 0.53 96 1009.6
20260509063117 10 155 3.2 4.8 0.18 0.51 0.51 96 1009.6
20260509062614 10 159 1.6 4.8 0.30 0.51 0.51 96 1009.8
20260509062111 10 215 1.6 1.6 0.13 0.48 0.48 96 1010.0
20260509061608 10 238 3.2 4.8 0.00 0.46 0.46 96 1010.0
20260509061105 10 144 1.6 4.8 0.00 0.46 0.46 96 1009.9
20260509060603 10 150 0.0 1.6 0.18 0.46 0.46 96 1010.1
20260509060058 10 151 0.0 4.8 0.18 0.46 0.46 96 1010.1
20260509055554 10 148 1.6 1.6 0.13 0.43 0.43 96 1010.3
20260509055050 10 137 1.6 1.6 0.30 0.43 0.43 96 1010.3
20260509054547 10 138 1.6 4.8 0.30 0.41 0.41 96 1010.3
20260509054045 10 145 1.6 4.8 0.13 0.38 0.38 96 1010.3
20260509053543 10 155 1.6 4.8 0.48 0.36 0.36 96 1010.5
20260509053040 10 128 3.2 6.4 0.30 0.33 0.33 96 1010.5
20260509052538 10 134 1.6 4.8 0.18 0.28 0.28 96 1010.6
20260509052035 10 124 3.2 4.8 0.30 0.25 0.25 96 1010.5
20260509051533 10 141 4.8 6.4 0.30 0.23 0.23 96 1010.5
20260509051030 10 128 1.6 1.6 0.13 0.20 0.20 96 1010.6
20260509050527 10 127 0.0 1.6 0.13 0.20 0.20 96 1010.5
20260509050023 10 134 3.2 4.8 0.18 0.18 0.18 96 1010.5
20260509045520 10 145 3.2 6.4 0.18 0.18 0.18 96 1010.8
20260509045017 10 130 3.2 4.8 0.30 0.15 0.15 96 1010.8
20260509044515 10 128 4.8 4.8 0.43 0.15 0.15 96 1010.8
20260509044013 10 126 1.6 1.6 0.43 0.10 0.10 96 1010.8
20260509043508 10 126 0.0 0.0 0.30 0.08 0.08 96 1010.9
20260509043004 10 126 1.6 1.6 0.00 0.03 0.03 96 1011.0
20260509042500 10 126 0.0 1.6 0.18 0.03 0.03 96 1011.0
20260509041956 10 125 1.6 4.8 0.00 0.00 0.00 96 1011.1
20260509041453 10 126 4.8 4.8 0.00 0.00 0.00 96 1011.0
20260509040951 10 120 1.6 1.6 0.00 0.00 0.00 96 1011.1
20260509040449 10 120 0.0 1.6 0.00 0.00 0.00 96 1011.2
20260509035946 10 122 0.0 1.6 0.00 0.74 0.74 96 1011.1
20260509035442 10 122 0.0 0.0 0.13 0.74 0.74 96 1011.4
20260509034939 10 122 1.6 1.6 0.13 0.74 0.74 95 1011.4
20260509034437 10 123 1.6 1.6 0.00 0.71 0.71 95 1011.4
20260509033934 10 123 0.0 0.0 0.00 0.71 0.71 95 1011.4
20260509033431 10 123 0.0 4.8 0.18 0.71 0.71 95 1011.5
20260509032927 10 131 1.6 1.6 0.18 0.71 0.71 95 1011.5
20260509032425 10 135 0.0 1.6 0.18 0.69 0.69 95 1011.6
20260509031923 10 128 1.6 4.8 0.18 0.69 0.69 95 1011.7
20260509031420 10 209 1.6 4.8 0.13 0.66 0.66 95 1011.9
20260509030917 10 250 1.6 4.8 0.30 0.66 0.66 95 1011.9
20260509030415 10 174 4.8 4.8 0.18 0.64 0.64 95 1011.6
20260509025912 10 146 4.8 6.4 0.13 0.61 0.61 95 1011.8
20260509025408 10 136 1.6 4.8 0.13 0.61 0.61 95 1011.7
20260509024903 10 208 1.6 1.6 0.00 0.58 0.58 95 1011.8
20260509024359 10 222 0.0 6.4 0.18 0.58 0.58 95 1012.0
20260509023856 10 128 3.2 6.4 0.18 0.58 0.58 95 1011.9
20260509023354 10 152 1.6 8.0 0.00 0.56 0.56 95 1012.0
20260509022850 10 153 6.4 8.0 0.00 0.56 0.56 95 1012.0
20260509022347 10 135 1.6 1.6 0.13 0.56 0.56 95 1012.0
20260509021844 10 140 1.6 6.4 0.13 0.56 0.56 95 1011.9
20260509021341 10 135 0.0 4.8 0.18 0.53 0.53 96 1011.9
20260509020839 10 160 6.4 6.4 0.18 0.53 0.53 96 1012.0
20260509020337 10 126 0.0 1.6 0.13 0.51 0.51 96 1012.0
20260509015834 10 148 1.6 4.8 0.18 0.48 0.48 96 1012.0
20260509015332 10 130 1.6 4.8 0.18 0.48 0.48 95 1012.1
20260509014829 10 123 1.6 4.8 0.13 0.46 0.46 95 1012.3
20260509014326 10 138 3.2 6.4 0.30 0.46 0.46 95 1012.1
20260509013823 10 133 1.6 1.6 0.36 0.43 0.43 95 1012.1
20260509013319 10 138 1.6 1.6 0.30 0.41 0.41 95 1012.1
20260509012815 10 138 1.6 1.6 0.30 0.38 0.38 95 1012.1
20260509012312 10 138 0.0 0.0 0.30 0.36 0.36 95 1012.2
20260509011809 10 138 0.0 0.0 0.13 0.33 0.33 95 1011.8
20260509011306 10 138 0.0 1.6 0.00 0.30 0.30 95 1011.9
20260509010804 10 138 1.6 4.8 0.18 0.30 0.30 95 1011.9
20260509010300 10 211 1.6 1.6 0.18 0.30 0.30 95 1012.0
20260509005758 10 212 0.0 0.0 0.13 0.28 0.28 94 1011.9
20260509005256 10 212 1.6 0.0 0.13 0.28 0.28 94 1011.7
20260509004755 10 212 1.6 1.6 0.18 0.25 0.25 94 1011.6
20260509004252 10 212 0.0 1.6 0.18 0.25 0.25 94 1011.9
20260509003751 10 230 4.8 4.8 0.13 0.23 0.23 94 1011.9
20260509003248 10 242 1.6 1.6 0.18 0.20 0.20 94 1011.9
20260509002745 10 242 1.6 1.6 0.18 0.20 0.20 94 1011.6
20260509002242 10 256 0.0 4.8 0.30 0.20 0.20 94 1012.0
20260509001740 10 323 1.6 1.6 0.30 0.18 0.18 94 1012.0
20260509001236 10 13 1.6 1.6 0.13 0.13 0.13 93 1011.6
20260509000734 10 13 1.6 1.6 0.13 0.13 0.13 93 1011.6
20260509000231 10 13 1.6 1.6 0.00 0.10 0.10 93 1011.6
20260508235728 10 13 1.6 1.6 0.00 0.10 0.10 93 1011.6
20260508235224 10 13 0.0 0.0 0.00 0.10 0.10 92 1011.1
20260508234721 10 13 0.0 0.0 0.00 0.10 0.10 92 1011.4
20260508234217 10 14 0.0 0.0 0.00 0.10 0.10 91 1011.0
20260508233712 10 14 0.0 0.0 0.00 0.10 0.10 90 1011.1
20260508233209 10 13 0.0 0.0 0.00 0.10 0.10 90 1011.0
20260508232706 10 13 0.0 0.0 0.00 0.10 0.10 89 1011.3
20260508232202 10 13 0.0 1.6 0.00 0.10 0.10 91 1011.1
20260508231701 10 13 0.0 0.0 0.00 0.10 0.10 92 1011.2
20260508231157 10 13 0.0 1.6 0.00 0.10 0.10 92 1011.1
20260508230654 10 13 0.0 0.0 0.00 0.10 0.10 92 1011.1
20260508230150 10 13 0.0 0.0 0.00 0.10 0.10 92 1011.4
20260508225649 10 13 0.0 0.0 0.00 0.10 0.10 92 1011.3
20260508225144 10 13 0.0 0.0 0.18 0.10 0.10 92 1011.2
20260508224643 10 12 1.6 1.6 0.18 0.10 0.10 92 1011.4
20260508224140 10 13 1.6 1.6 0.00 0.08 0.08 91 1011.3
20260508223637 10 10 3.2 4.8 0.00 0.08 0.08 91 1011.4
20260508223134 10 43 3.2 4.8 0.00 0.08 0.08 90 1011.1
20260508222632 10 70 1.6 1.6 0.00 0.08 0.08 90 1011.0
20260508222129 10 116 0.0 0.0 0.00 0.08 0.08 90 1011.0
20260508221625 10 115 1.6 1.6 0.00 0.08 0.08 91 1010.9
20260508221121 10 112 1.6 1.6 0.00 0.08 0.08 92 1010.6
20260508220618 10 131 4.8 6.4 0.00 0.08 0.08 91 1010.9
20260508220114 10 270 3.2 1.6 0.00 0.08 0.08 91 1011.1
20260508215611 10 271 0.0 1.6 0.00 0.08 0.08 91 1011.1
20260508215107 10 272 1.6 1.6 0.00 0.08 0.08 90 1011.3
20260508214604 10 272 1.6 1.6 0.00 0.08 0.08 89 1011.3
20260508214100 10 273 1.6 1.6 0.00 0.08 0.08 90 1011.4
20260508180046 12 250 6.4 8.0 0.18 0.08 0.08 74 1013.3
20260508175543 12 250 6.4 8.0 0.18 0.08 0.08 74 1013.3
20260508175040 12 250 6.4 8.0 0.18 0.08 0.08 74 1013.3
20260508174538 12 252 9.7 16.1 0.18 0.08 0.08 73 1013.4
20260508174035 11 250 12.9 17.7 0.00 0.05 0.05 74 1013.2
20260508173532 12 254 6.4 12.9 0.13 0.05 0.05 74 1013.0
20260508173027 12 229 12.9 12.9 0.13 0.05 0.05 72 1013.2
20260508172525 12 276 4.8 11.3 0.00 0.03 0.03 71 1013.1
20260508172021 12 111 12.9 22.5 0.18 0.03 0.03 69 1013.2
20260508171518 13 264 8.0 22.5 0.18 0.03 0.03 63 1013.0
20260508171014 13 257 8.0 11.3 0.00 0.00 0.00 63 1012.9
20260508170512 14 263 11.3 16.1 0.00 0.00 0.00 59 1012.9
20260508170009 14 264 11.3 16.1 0.00 0.00 0.00 58 1013.0
20260508165506 15 276 3.2 4.8 0.00 0.00 0.00 57 1012.8
20260508165003 15 253 8.0 19.3 0.00 0.00 0.00 55 1012.8
20260508164459 15 263 8.0 19.3 0.00 0.00 0.00 54 1012.9
20260508163956 14 263 4.8 17.7 0.00 0.00 0.00 58 1013.1
20260508163454 15 249 4.8 17.7 0.00 0.00 0.00 55 1013.0
20260508162949 15 243 8.0 22.5 0.00 0.00 0.00 57 1012.9
20260508162447 14 220 4.8 12.9 0.00 0.00 0.00 57 1012.9
20260508161944 14 220 6.4 8.0 0.00 0.00 0.00 57 1013.1
20260508161441 14 289 6.4 19.3 0.00 0.00 0.00 58 1013.1
20260508160938 14 243 8.0 19.3 0.00 0.00 0.00 56 1013.2
20260508160438 14 239 20.9 30.6 0.00 0.00 0.00 55 1013.2
20260508155933 14 289 16.1 22.5 0.00 0.00 0.00 57 1013.2
20260508155430 14 318 4.8 12.9 0.00 0.00 0.00 58 1013.4
20260508154927 14 326 6.4 8.0 0.00 0.00 0.00 56 1013.3
20260508154424 13 250 16.1 19.3 0.00 0.00 0.00 57 1013.3
20260508153921 13 249 8.0 12.9 0.00 0.00 0.00 56 1013.3
20260508153418 13 261 4.8 8.0 0.00 0.00 0.00 56 1013.5
20260508152914 13 157 14.5 19.3 0.00 0.00 0.00 57 1013.4
20260508152411 13 308 6.4 6.4 0.00 0.00 0.00 57 1013.4
20260508151907 13 241 8.0 16.1 0.00 0.00 0.00 56 1013.3
20260508151404 13 287 1.6 8.0 0.00 0.00 0.00 59 1013.8
20260508150900 13 252 6.4 16.1 0.00 0.00 0.00 58 1013.4
20260508150357 13 295 16.1 17.7 0.00 0.00 0.00 55 1013.5
20260508145853 13 264 9.7 11.3 0.00 0.00 0.00 56 1013.5
20260508145350 13 282 8.0 17.7 0.00 0.00 0.00 57 1013.3
20260508144846 13 296 4.8 8.0 0.00 0.00 0.00 57 1013.7
20260508144345 14 268 11.3 12.9 0.00 0.00 0.00 55 1013.4
20260508143842 13 275 1.6 6.4 0.00 0.00 0.00 58 1013.4
20260508143339 13 350 3.2 4.8 0.00 0.00 0.00 57 1013.7
20260508142835 12 245 9.7 16.1 0.00 0.00 0.00 58 1013.8
20260508142332 13 248 6.4 16.1 0.00 0.00 0.00 56 1013.5
20260508141829 12 265 4.8 8.0 0.00 0.00 0.00 57 1013.5
20260508141326 12 256 11.3 11.3 0.00 0.00 0.00 57 1013.5
20260508140823 12 244 8.0 22.5 0.00 0.00 0.00 57 1013.4
20260508140320 13 315 4.8 8.0 0.00 0.00 0.00 56 1013.7
20260508135816 12 283 9.7 19.3 0.00 0.00 0.00 57 1013.8
20260508135312 12 10 8.0 12.9 0.00 0.00 0.00 55 1013.7
20260508134808 12 208 3.2 12.9 0.00 0.00 0.00 58 1013.7
20260508134305 11 298 6.4 11.3 0.00 0.00 0.00 57 1013.9
20260508133802 11 274 6.4 12.9 0.00 0.00 0.00 59 1013.9
20260508133300 11 300 8.0 12.9 0.00 0.00 0.00 58 1014.0
20260508132757 11 200 4.8 16.1 0.00 0.00 0.00 61 1013.9
20260508132254 11 297 3.2 16.1 0.00 0.00 0.00 59 1013.9
20260508131750 11 205 14.5 17.7 0.00 0.00 0.00 59 1014.1
20260508131246 11 279 12.9 24.1 0.00 0.00 0.00 57 1013.9
20260508130743 11 222 4.8 12.9 0.00 0.00 0.00 59 1013.8
20260508130241 11 290 16.1 19.3 0.00 0.00 0.00 58 1013.8
20260508125736 11 204 4.8 12.9 0.00 0.00 0.00 61 1013.8
20260508125232 10 276 3.2 6.4 0.00 0.00 0.00 63 1014.0
20260508124731 10 258 3.2 11.3 0.00 0.00 0.00 64 1013.9
20260508124227 10 202 1.6 6.4 0.00 0.00 0.00 65 1014.0
20260508123726 11 276 4.8 8.0 0.00 0.00 0.00 64 1014.0
20260508123224 11 208 9.7 12.9 0.00 0.00 0.00 62 1013.8
20260508122719 11 249 8.0 19.3 0.00 0.00 0.00 63 1013.8
20260508122216 10 279 8.0 12.9 0.00 0.00 0.00 64 1013.4
20260508121714 10 293 12.9 16.1 0.00 0.00 0.00 65 1013.4
20260508121213 10 219 6.4 8.0 0.00 0.00 0.00 68 1013.4
20260508120709 10 221 6.4 8.0 0.00 0.00 0.00 68 1013.5
20260508120208 10 259 3.2 6.4 0.00 0.00 0.00 70 1013.5
20260508115705 10 233 1.6 11.3 0.00 0.00 0.00 69 1013.4
20260508115202 9 122 1.6 4.8 0.00 0.00 0.00 71 1013.3
20260508114658 9 260 1.6 6.4 0.00 0.00 0.00 72 1013.4
20260508114155 8 233 4.8 8.0 0.00 0.00 0.00 73 1013.2
20260508113652 8 231 1.6 4.8 0.00 0.00 0.00 77 1013.4
20260508113150 8 244 1.6 4.8 0.00 0.00 0.00 75 1013.2
20260508112646 8 254 1.6 1.6 0.00 0.00 0.00 76 1013.2
20260508112143 8 269 0.0 1.6 0.00 0.00 0.00 76 1013.2
20260508111639 8 268 8.0 11.3 0.00 0.00 0.00 75 1013.4
20260508111137 8 107 1.6 1.6 0.00 0.00 0.00 77 1013.3
20260508110635 8 162 1.6 4.8 0.00 0.00 0.00 76 1013.3
20260508110131 8 265 8.0 19.3 0.00 0.00 0.00 73 1013.8
20260508105626 8 233 8.0 17.7 0.00 0.00 0.00 73 1013.8
20260508105123 8 273 6.4 8.0 0.00 0.00 0.00 70 1013.7
20260508104621 8 308 1.6 4.8 0.00 0.00 0.00 70 1013.3
20260508104117 8 269 4.8 6.4 0.00 0.00 0.00 70 1013.2
20260508103614 8 231 3.2 4.8 0.00 0.00 0.00 71 1013.2
20260508103111 8 274 6.4 11.3 0.00 0.00 0.00 70 1013.2
20260508102609 8 234 3.2 12.9 0.00 0.00 0.00 70 1013.0
20260508102106 7 285 6.4 11.3 0.00 0.00 0.00 71 1013.2